TITAN 34D TRANSTAGE DEB

基本信息
目录编号:
23130
目录名称:
TITAN 34D TRANSTAGE DEB
国际标识:
1988-077M
轨道中心:
EARTH
物体状态:
在轨
发射日期:
1988-09-02 UTC
轨道信息
数据来源: 国际轨道数据
星历时间: 2026-07-12T18:11:01+0800
半长轴: 26549.839km
偏心率: 0.7275866
轨道倾角: 27.328°
近地点辐角: 84.695°
升交点赤经: 65.744°
平近点角: 346.746°
近地点: 854.394km
远地点: 39489.01km
周期: 717.551分钟
每日圈数: 2.006827
详细信息
发射场:
AFETR
轨道高度:
LEO
数据来源:
AOE Integration Group
参考系:
TEME
时间系统:
UTC
历元类型:
SGP4
2D轨道图
3D轨道图
轨道高度分析图
轨道倾角分析图
轨道综合分析图
查看轨道综合分析图